[[{"header":{"parameterUnit":"m.s-1","parameterCategory":1,"la1":30.2991,"la2":30.254,"lo1":-89.0895,"lo2":-89.0444,"dy":0.0017,"dx":0.0017,"nx":28,"ny":28,"refTime":"2024-02-03T09:00:00:Z","depth":0,"parameterNumber":2,"parameterNumberName":"U-component_of_WINDS"},"data":[0,0,0,0,0,0,0,0,0,0,0,0,0,0,0,0,0,0,0,0,0,0,0,0,0,0,0,0,0,0,0,0,0,0,0,0,0,0,0,0,0,0,0,0,0,0,0,0,0,0,0,0,0,0,0,0,0,0,0.1391,0.1392,0,0.1466,0.1467,0.1468,0.1517,0.1517,0.1518,0.1518,0.1595,0.1597,0.1599,0,0,0,0,0,0,0,0,0,0,0,0,0,0.1293,0.1294,0.1391,0.1392,0.1393,0.1466,0.1467,0.1468,0.1517,0.1517,0.1518,0.1518,0.1595,0.1597,0.1599,0,0,0,0,0,0,0,0,0,0,0,0,0,0.1348,0.1295,0.1391,0.1426,0.143,0.1466,0.1467,0.1468,0.1517,0.1517,0.1518,0.1518,0.1594,0.1597,0.1599,0.1605,0,0,0.1607,0.1608,0,0,0,0,0,0,0,0,0.1345,0.1352,0.142,0.1424,0.1428,0.1483,0.1461,0.1514,0.1517,0.1484,0.1518,0.1519,0.1557,0.1563,0.1576,0.1609,0.1612,0.1607,0.1609,0.161,0.1611,0,0,0,0,0,0,0,0.1341,0.1349,0.1421,0.1421,0.1426,0.1439,0.1447,0.1471,0.1517,0.1487,0.1491,0.1499,0.156,0.1573,0.1578,0.1614,0.1607,0.161,0.1611,0.1612,0.1658,0.1658,0,0,0,0,0,0,0.1332,0.1345,0.1418,0.1423,0.1387,0.144,0.145,0.1465,0.1517,0.1525,0.1498,0.1501,0.1569,0.1575,0.1581,0.1594,0.161,0.1613,0.1614,0.1658,0.1658,0.1658,0,0,0,0,0,0,0.1329,0.1338,0.1415,0.1385,0.1396,0.1442,0.1458,0.1466,0.148,0.1526,0.1534,0.1504,0.1569,0.1577,0.16,0.1597,0.1614,0.1616,0.1659,0.1658,0.1658,0.1617,0,0,0,0,0,0,0.1326,0.1336,0.1339,0.1385,0.1398,0.1432,0.1458,0.1467,0.1484,0.1488,0.1533,0.1541,0.157,0.1595,0.1602,0.1601,0.1618,0.1659,0.1659,0.1658,0.1619,0.1615,0.1612,0,0,0,0,0,0.1323,0.1324,0.1339,0.1347,0.1401,0.1431,0.1439,0.1472,0.1483,0.1487,0.1517,0.1539,0.1596,0.1597,0.1605,0.1605,0.166,0.1659,0.1658,0.162,0.1616,0.1612,0,0,0,0,0,0,0.1276,0.1331,0.1347,0.1364,0.1393,0.144,0.1444,0.1466,0.1493,0.1495,0.1537,0.1546,0.1565,0.1587,0.1587,0.1615,0.1631,0.1631,0.1599,0.1595,0.1592,0.1587,0.162,0,0,0,0,0,0.1268,0.1287,0.1334,0.1344,0.1358,0.1398,0.1413,0.1437,0.1468,0.1481,0.1512,0.1542,0.1567,0.1583,0.1608,0.1622,0.1634,0.1626,0.1623,0.162,0.162,0.1631,0.1629,0.1655,0.1655,0.1655,0,0,0.1251,0.1283,0.1292,0.1335,0.1361,0.1381,0.1408,0.1428,0.1444,0.1484,0.1507,0.1531,0.1568,0.1586,0.1596,0.1605,0.1615,0.1619,0.1616,0.1618,0.163,0.1628,0.1625,0.1654,0.1654,0.1655,0,0,0.123,0.1256,0.1268,0.1292,0.133,0.1358,0.1361,0.1405,0.1423,0.1446,0.1478,0.1497,0.1539,0.1564,0.1582,0.1573,0.1596,0.158,0.1562,0.1573,0.1571,0.1569,0.1567,0.1566,0.158,0.158,0.158,0,0.1204,0.1235,0.1271,0.1289,0.1308,0.1345,0.1359,0.1381,0.1425,0.1438,0.1447,0.1502,0.1529,0.1555,0.1553,0.1566,0.1572,0.1575,0.1568,0.1567,0.1566,0.1565,0.1564,0.1578,0.1578,0.1579,0.1579,0,0.1202,0.1223,0.1228,0.127,0.1289,0.1305,0.1344,0.1359,0.1382,0.1409,0.1433,0.1468,0.1501,0.1509,0.1531,0.1539,0.1544,0.156,0.1577,0.1561,0.156,0.156,0.1575,0.1576,0.1577,0.1577,0,0,0.1153,0.1216,0.1217,0.1237,0.1283,0.13,0.1318,0.1351,0.1364,0.1394,0.1411,0.1446,0.1462,0.1483,0.1508,0.1517,0.151,0.1533,0.1535,0.1528,0.1522,0.151,0.1509,0.1525,0.1525,0.1525,0.152,0,0.1139,0.1173,0.1207,0.1229,0.125,0.1287,0.1303,0.1333,0.1359,0.1381,0.141,0.1435,0.1453,0.1466,0.1477,0.1508,0.1509,0.1509,0.1542,0.1543,0.1532,0.1508,0.1495,0.1488,0.152,0.152,0.152,0,0.1128,0.1157,0.1181,0.1226,0.1236,0.1249,0.1283,0.1304,0.1339,0.1358,0.1382,0.1409,0.1431,0.1445,0.1477,0.1476,0.1492,0.151,0.151,0.1515,0.153,0.1513,0.1487,0.1486,0.1519,0.1519,0.1519,0,0.1091,0.1136,0.1156,0.1172,0.1225,0.1234,0.1257,0.1293,0.1311,0.1341,0.1354,0.1386,0.1403,0.1428,0.1464,0.1471,0.1492,0.1509,0.1509,0.1508,0.1512,0.1511,0.1489,0.1521,0.1521,0.1521,0.1521,0,0.1073,0.1087,0.1141,0.1153,0.117,0.121,0.1226,0.1251,0.1284,0.1303,0.1337,0.1354,0.14,0.1423,0.1452,0.1475,0.1482,0.1498,0.1506,0.1496,0.1494,0.1507,0.1508,0.1521,0.1521,0.1521,0.1521,0,0.1035,0.1071,0.1097,0.1145,0.1157,0.1168,0.121,0.1224,0.1252,0.1276,0.1284,0.1329,0.1359,0.1397,0.1438,0.1457,0.1477,0.1488,0.1465,0.1469,0.1467,0.1467,0.1453,0.1453,0.1484,0.1484,0.1483,0,0.1021,0.1033,0.1082,0.1098,0.1119,0.1143,0.1162,0.1202,0.1221,0.1263,0.1273,0.1305,0.1333,0.1378,0.1415,0.1448,0.146,0.1453,0.1465,0.1455,0.1461,0.146,0.1463,0.145,0.1449,0.1449,0.1448,0,0.0993,0.1011,0.1037,0.107,0.1092,0.112,0.1149,0.116,0.1206,0.1226,0.1256,0.1278,0.1321,0.1353,0.139,0.1414,0.144,0.1444,0.1446,0.1436,0.1423,0.1431,0.1457,0.1444,0.1445,0.1445,0.1445,0.1445,0.0968,0.098,0.1018,0.1046,0.1072,0.1099,0.1116,0.1147,0.1173,0.121,0.1233,0.1263,0.13,0.1353,0.1377,0.1402,0.1411,0.1413,0.1414,0.1414,0.1412,0.1418,0.1409,0.1409,0.1409,0.1409,0.1409,0,0.0943,0.0969,0.0994,0.1035,0.1057,0.1079,0.1113,0.1131,0.1157,0.1189,0.1216,0.1252,0.1284,0.1324,0.1359,0.1371,0.1384,0.1379,0.1379,0.1384,0.1401,0.1396,0.1368,0.1368,0.1368,0.1368,0.1368,0.1368,0.0932,0.0955,0.0977,0.1014,0.1041,0.107,0.1088,0.1114,0.114,0.1179,0.1205,0.1231,0.1267,0.1305,0.1336,0.1347,0.1358,0.135,0.1365,0.1379,0.1383,0.1386,0.1382,0.1352,0.1352,0.1347,0.1347,0.1347]},{"header":{"parameterUnit":"m.s-1","parameterCategory":1,"la1":30.2991,"la2":30.254,"lo1":-89.0895,"lo2":-89.0444,"dy":0.0017,"dx":0.0017,"nx":28,"ny":28,"refTime":"2024-02-03T09:00:00:Z","depth":0,"parameterNumber":3,"parameterNumberName":"V-component_of_WINDS"},"data":[0,0,0,0,0,0,0,0,0,0,0,0,0,0,0,0,0,0,0,0,0,0,0,0,0,0,0,0,0,0,0,0,0,0,0,0,0,0,0,0,0,0,0,0,0,0,0,0,0,0,0,0,0,0,0,0,0,0,-5.6285,-5.6286,0,-5.6412,-5.6413,-5.6415,-5.6416,-5.6414,-5.6413,-5.6411,-5.6532,-5.6536,-5.6541,0,0,0,0,0,0,0,0,0,0,0,0,0,-5.6035,-5.604,-5.6285,-5.6286,-5.6288,-5.6412,-5.6414,-5.6415,-5.6416,-5.6414,-5.6412,-5.6411,-5.653,-5.6536,-5.6541,0,0,0,0,0,0,0,0,0,0,0,0,0,-5.6151,-5.6041,-5.6284,-5.6304,-5.6307,-5.6412,-5.6414,-5.6416,-5.6417,-5.6414,-5.6412,-5.641,-5.6528,-5.6535,-5.6542,-5.6633,0,0,-5.6564,-5.6567,0,0,0,0,0,0,0,0,-5.6144,-5.616,-5.6299,-5.6302,-5.6306,-5.6396,-5.637,-5.6488,-5.6417,-5.6375,-5.6411,-5.6408,-5.6488,-5.6498,-5.6527,-5.6639,-5.6644,-5.6564,-5.6568,-5.6571,-5.6573,0,0,0,0,0,0,0,-5.6136,-5.6154,-5.6335,-5.6301,-5.6305,-5.6303,-5.6317,-5.6392,-5.6443,-5.6378,-5.6379,-5.6394,-5.6489,-5.652,-5.653,-5.6646,-5.6564,-5.657,-5.6575,-5.6577,-5.6841,-5.6843,0,0,0,0,0,0,-5.6125,-5.6148,-5.6331,-5.6339,-5.6218,-5.631,-5.6325,-5.6369,-5.6442,-5.6451,-5.6396,-5.6394,-5.6509,-5.6521,-5.6534,-5.6646,-5.6571,-5.6578,-5.6582,-5.6838,-5.6841,-5.6844,0,0,0,0,0,0,-5.612,-5.6142,-5.6326,-5.6243,-5.6267,-5.6317,-5.6366,-5.6373,-5.6404,-5.6456,-5.6464,-5.6419,-5.6508,-5.6524,-5.661,-5.665,-5.6581,-5.6588,-5.6835,-5.6839,-5.6843,-5.6871,0,0,0,0,0,0,-5.6113,-5.614,-5.6176,-5.6244,-5.6271,-5.6401,-5.6369,-5.6377,-5.6417,-5.6416,-5.6479,-5.6487,-5.6507,-5.6599,-5.6617,-5.6659,-5.6593,-5.6831,-5.6837,-5.6841,-5.6867,-5.6876,-5.6884,0,0,0,0,0,-5.6104,-5.6177,-5.6178,-5.62,-5.6319,-5.6404,-5.6419,-5.6443,-5.6421,-5.6457,-5.6491,-5.6485,-5.6644,-5.6608,-5.6628,-5.6672,-5.6829,-5.6835,-5.6841,-5.6863,-5.6874,-5.6883,0,0,0,0,0,0,-5.6108,-5.6186,-5.6188,-5.6286,-5.6339,-5.6404,-5.645,-5.6454,-5.6511,-5.6506,-5.6531,-5.6546,-5.6631,-5.666,-5.6619,-5.6765,-5.6733,-5.6743,-5.6743,-5.6754,-5.6762,-5.6752,-5.6599,0,0,0,0,0,-5.6121,-5.6187,-5.625,-5.633,-5.6357,-5.6399,-5.6437,-5.6452,-5.6506,-5.6527,-5.6567,-5.6617,-5.6679,-5.6718,-5.6777,-5.6872,-5.6885,-5.6912,-5.6921,-5.6927,-5.6935,-5.6988,-5.7001,-5.6865,-5.6865,-5.6865,0,0,-5.6146,-5.6197,-5.6236,-5.6332,-5.6375,-5.644,-5.6418,-5.6487,-5.6535,-5.6537,-5.6621,-5.6652,-5.671,-5.6801,-5.6843,-5.6828,-5.6977,-5.6935,-5.694,-5.6945,-5.6996,-5.7009,-5.702,-5.6869,-5.6868,-5.6868,0,0,-5.6227,-5.6273,-5.6345,-5.639,-5.6457,-5.6485,-5.6503,-5.6569,-5.659,-5.6677,-5.668,-5.6736,-5.6841,-5.6883,-5.6917,-5.7018,-5.7015,-5.7036,-5.7079,-5.713,-5.7141,-5.7151,-5.7186,-5.7199,-5.7045,-5.7045,-5.7045,0,-5.6249,-5.6351,-5.6381,-5.6452,-5.6494,-5.6503,-5.6576,-5.6616,-5.6697,-5.6725,-5.6708,-5.6842,-5.6881,-5.6983,-5.7008,-5.7036,-5.7055,-5.7028,-5.7138,-5.7148,-5.7157,-5.7191,-5.7204,-5.7047,-5.7047,-5.7046,-5.7046,0,-5.6375,-5.6446,-5.6496,-5.6579,-5.6626,-5.6697,-5.6736,-5.678,-5.6792,-5.6822,-5.6909,-5.6958,-5.7028,-5.7053,-5.7063,-5.7156,-5.7145,-5.7133,-5.7101,-5.7172,-5.7204,-5.7217,-5.705,-5.7049,-5.7049,-5.7048,0,0,-5.6458,-5.6561,-5.6578,-5.6617,-5.6693,-5.6747,-5.6818,-5.6891,-5.6928,-5.6984,-5.7044,-5.7135,-5.7125,-5.7165,-5.718,-5.7225,-5.7302,-5.7207,-5.7209,-5.7223,-5.7408,-5.7415,-5.743,-5.7302,-5.7304,-5.7306,-5.7403,0,-5.6546,-5.6678,-5.6708,-5.682,-5.6885,-5.6897,-5.696,-5.7012,-5.7042,-5.71,-5.7132,-5.7196,-5.7179,-5.7203,-5.7249,-5.7283,-5.7339,-5.7277,-5.7355,-5.7357,-5.7339,-5.7447,-5.7455,-5.7543,-5.7415,-5.7418,-5.7419,0,-5.6665,-5.673,-5.6849,-5.692,-5.6948,-5.7004,-5.7074,-5.713,-5.719,-5.7209,-5.7256,-5.7267,-5.734,-5.7306,-5.7407,-5.7364,-5.7398,-5.742,-5.7424,-5.743,-5.7391,-5.7455,-5.7572,-5.7585,-5.7439,-5.7438,-5.7436,0,-5.6713,-5.6829,-5.6916,-5.6949,-5.7033,-5.7073,-5.7109,-5.7167,-5.7209,-5.727,-5.7297,-5.7364,-5.74,-5.745,-5.7479,-5.7452,-5.7577,-5.7545,-5.7593,-5.7592,-5.7616,-5.7614,-5.7739,-5.7641,-5.7641,-5.764,-5.764,0,-5.6807,-5.6879,-5.694,-5.6993,-5.7074,-5.7109,-5.7187,-5.7223,-5.7275,-5.7334,-5.7348,-5.7402,-5.7437,-5.7496,-5.7518,-5.7598,-5.7614,-5.763,-5.7634,-5.7628,-5.7626,-5.7649,-5.7643,-5.7644,-5.7643,-5.7642,-5.7642,0,-5.6873,-5.6916,-5.7012,-5.7087,-5.7107,-5.7164,-5.7226,-5.7277,-5.7309,-5.7384,-5.7403,-5.7453,-5.7523,-5.7558,-5.7643,-5.7658,-5.7748,-5.775,-5.7729,-5.7731,-5.7776,-5.7771,-5.7919,-5.794,-5.7829,-5.783,-5.7831,0,-5.6929,-5.6986,-5.7068,-5.7111,-5.715,-5.7217,-5.7263,-5.7299,-5.7344,-5.7419,-5.7461,-5.7533,-5.7592,-5.7704,-5.7745,-5.7811,-5.7813,-5.7861,-5.7823,-5.7815,-5.7813,-5.7809,-5.7814,-5.7867,-5.7868,-5.7869,-5.7869,0,-5.7024,-5.7045,-5.7111,-5.7186,-5.7241,-5.73,-5.7358,-5.7391,-5.7437,-5.7487,-5.7562,-5.7609,-5.7699,-5.777,-5.784,-5.7874,-5.7879,-5.7882,-5.7896,-5.7889,-5.7874,-5.7882,-5.7747,-5.7877,-5.7876,-5.7876,-5.7875,-5.7875,-5.7087,-5.7139,-5.7206,-5.728,-5.7329,-5.7384,-5.7437,-5.7479,-5.7543,-5.7622,-5.7639,-5.7718,-5.7777,-5.7872,-5.7909,-5.797,-5.7959,-5.7979,-5.7984,-5.7989,-5.7991,-5.7867,-5.7982,-5.7982,-5.7982,-5.7982,-5.7982,0,-5.7182,-5.7227,-5.7296,-5.738,-5.7438,-5.7443,-5.7509,-5.7556,-5.7626,-5.7684,-5.7744,-5.7829,-5.7899,-5.7948,-5.8019,-5.8058,-5.8061,-5.8074,-5.8071,-5.8079,-5.7997,-5.7977,-5.807,-5.807,-5.807,-5.807,-5.807,-5.807,-5.7238,-5.7327,-5.7356,-5.7469,-5.7512,-5.7593,-5.763,-5.7681,-5.7727,-5.7824,-5.7884,-5.7918,-5.7971,-5.8046,-5.811,-5.8122,-5.8147,-5.816,-5.8172,-5.8094,-5.8084,-5.8075,-5.8057,-5.8165,-5.8166,-5.8249,-5.825,-5.825]}]]